Location: Kuppenheim
(48.8299°N, 8.2568°E)
Time: 08:14:41
(UTC+00:00)

Envisat - Pass Details

Date: 07 December 2022
Orbit: 763 x 765 km, 98.2° (Epoch: 04 February)

Event Time Altitude Azimuth Distance (km) Brightness Sun altitude
Rises 05:09:12 0° 4° (N) 3,246 6.1 -18.3°
Reaches altitude 10° 05:11:56 10° 350° (N) 2,315 5.2 -17.8°
Enters shadow 05:13:45 18° 332° (NNW) 1,836 4.6 -17.5°
